Location: Evergreen Manor
(41.4083°N, 81.4939°W)
Time: 12:02:54
(UTC+00:00)

Cosmos 1850 Rocket - Pass Details

Date: 11 December 2019
Orbit: 754 x 786 km, 74.0° (Epoch: 24 January)

Event Time Altitude Azimuth Distance (km) Brightness Sun altitude
Exits shadow 10:59:37 13° 341° (NNW) 2,126 6.0 -18.5°
Maximum altitude 11:04:24 87° 70° (ENE) 793 4.0 -17.6°
Drops below altitude 10° 11:09:44 10° 161° (SSE) 2,334 7.0 -16.7°
Sets 11:12:06 0° 162° (SSE) 3,256 7.8 -16.2°
